Regional Weather Roundup
Issued by NWS

Home | Current Version | Previous Version | Graphics & Text | Print | Product List | Glossary On
Versions: 1 2 3 4 5 6 7 8 9 10 11 12 13 14 15 16 17 18 19 20 21 22 23 24 25 26 27 28 29 30 31 32 33 34 35 36 37 38 39 40 41 42 43 44 45 46 47 48 49 50
000
ASUS45 KPSR 131100
RWRAZ

PRELIMINARY ARIZONA REGIONAL HOURLY WEATHER ROUNDUP
NATIONAL WEATHER SERVICE PHOENIX AZ
400 AM MST SUN JUL 13 2014

NOTE: FAIR INDICATES FEW OR NO CLOUDS BELOW 12,000 FEET WITH NO
SIGNIFICANT WEATHER AND/OR OBSTRUCTIONS TO VISIBILITY.

AZZ001>003-036-131200-
NORTHWEST ARIZONA

CITY           SKY/WX    TMP DP  RH WIND       PRES   REMARKS
KINGMAN        CLEAR     75  50  41 CALM      30.04S
$$

AZZ004>008-015-016-018-131200-
NORTH CENTRAL ARIZONA

CITY           SKY/WX    TMP DP  RH WIND       PRES   REMARKS
GRAND CANYON   PTCLDY    55  50  83 CALM      30.32S
WILLIAMS       CLEAR     59  50  72 SE3       30.37S
PRESCOTT       PTCLDY    69  51  52 W7        30.17S
FLAGSTAFF      MOCLDY    58  51  78 N5        30.34S
PAYSON         MOCLDY    66  59  77 E6        30.21R
PAGE           CLEAR     81  51  35 S9        30.12R
$$

AZZ009>014-017-131200-
NORTHEAST ARIZONA

CITY           SKY/WX    TMP DP  RH WIND       PRES   REMARKS
WINSLOW        NOT AVBL
SAINT JOHNS    CLEAR     63  57  81 SE5       30.25S
WINDOW ROCK    MOCLDY    64  55  72 N3        30.33R
$$

AZZ023-131200-
GREATER PHOENIX AREA

CITY           SKY/WX    TMP DP  RH WIND       PRES   REMARKS
PHOENIX        CLOUDY    91  62  37 SE10      29.84S
LUKE AFB       NOT AVBL
DEER VALLEY    CLOUDY    89  60  37 SE10      29.87R
SCOTTSDALE     CLOUDY    89  61  38 E5        29.90R
$$

AZZ027-028-131200-
SOUTHWEST MARICOPA COUNTY AND PINAL COUNTY

CITY           SKY/WX    TMP DP  RH WIND       PRES   REMARKS
CASA GRANDE    MOCLDY    84  61  45 CALM      29.89F
$$

AZZ503-504-507>509-131200-
SOUTHEAST ARIZONA

CITY           SKY/WX    TMP DP  RH WIND       PRES   REMARKS
TUCSON         PTCLDY    78  60  53 SE9       30.00S
DAVIS-MONTHAN  PTCLDY    76  62  61 SE8       29.99S
NOGALES        CLOUDY    68  64  87 SE5       30.07S
SIERRA VISTA   MOCLDY    68  62  81 CALM      30.14S
SAFFORD        PTCLDY    76  60  57 S7        30.03F
$$

AZZ020-021-025-026-031-131200-
SOUTHWEST ARIZONA

CITY           SKY/WX    TMP DP  RH WIND       PRES   REMARKS
YUMA           NOT AVBL
$$

CAZ031-033-041-043-047-048-061-131200-
SOUTHERN CALIFORNIA

CITY           SKY/WX    TMP DP  RH WIND       PRES   REMARKS
DOWNTOWN L.A.  CLEAR     67  62  84 CALM      29.91S
L.A. AIRPORT   CLEAR     68  63  84 W3        29.92S
SAN DIEGO      PTCLDY    69  62  78 W3        29.92F
BURBANK        CLEAR     69  52  54 W5        29.91F
ONTARIO        PTCLDY    69  59  70 CALM      29.92F
RIVERSIDE      CLEAR     70  59  68 CALM      29.93S
PALM SPRINGS   CLEAR     85  57  38 CALM      29.83S
EL CENTRO NAS  PTCLDY    86  53  32 SW3       29.75F
IMPERIAL       PTCLDY    84  55  36 W3        29.75F
BLYTHE         CLEAR     87  52  29 N5        29.77F
$$

NVZ020-UTZ003-131200-
SOUTHERN NEVADA-UTAH

CITY           SKY/WX    TMP DP  RH WIND       PRES   REMARKS
LAS VEGAS      NOT AVBL
SALT LAKE CITY CLEAR     72  52  49 NW3       30.15R
$$

NMZ009-TXZ055-131200-
NEW MEXICO-WEST TEXAS

CITY           SKY/WX    TMP DP  RH WIND       PRES   REMARKS
ALBUQUERQUE    MOCLDY    71  53  52 E10       30.27R
EL PASO        CLOUDY    71  60  68 E7        30.15R
$$


........................KEY........................
SKY/WX - SKY CONDITION/WEATHER
TMP    - TEMPERATURE IN FAHRENHEIT
DP     - DEW POINT IN FAHRENHEIT
RH     - RELATIVE HUMIDITY IN PERCENT
WIND   - DIRECTION AND SPEED IN MILES PER HOUR (MPH)
VRB    - VARIABLE WIND DIRECTION
PRES   - MEAN SEA LEVEL PRESSURE IN INCHES OF MERCURY
         F - FALLING PRESSURE   R - RISING PRESSURE
         S - STEADY PRESSURE
VSB    - VISIBILITY IN MILES
HX     - HEAT INDEX IN FAHRENHEIT
WCI    - WIND CHILL INDEX IN FAHRENHEIT
TC     - TEMPERATURE IN CELSIUS WHICH IS ALSO KNOWN AS
         TEMPERATURE IN CENTIGRADE
AFB    - AIR FORCE BASE
         LUKE AFB IS LUKE AIR FORCE BASE
         DAVIS-MONTHAN IS DAVIS-MONTHAN AIR FORCE BASE
NAS    - NAVAL AIR STATION
         EL CENTRO NAS IS EL CENTRO NAVAL AIR STATION
N/A    - NOT AVAILABLE


USA.gov is the U.S. government's official web portal to all federal, state and local government web resources and services.